Flag for India Weather past 2 weeks in Chhindwara, Madhya Pradesh, India

Now
88 °F

Thundershowers. Broken clouds.


Feels Like: 100 °F
Forecast: 71 / 80 °F
Wind: 9 mph from Northeast

Location: Nagpur Sonegaon

Current Time: Aug 31, 2014 at 4:05:12 PM

Latest Report: Aug 31, 2014 at 3:10 PM


Visibility: 4 mi

Pressure: 29.42 "Hg

Humidity: 70%

Dew point: 77 °F

Location of ChhindwaraLocation

Historic Weather in Chhindwara — Graph

°F

Chhindwara temperature yesterday

Maximum temperature yesterday: 91 °F (at 1:10 PM)
Minimum temperature yesterday: 77 °F (at 3:10 AM)
Average temperature yesterday: 84 °F

Past Weeks' High & Low Weather Summary

 TemperatureHumidityPressure
High99 °F (Aug 19, 1:40 PM)100% (Aug 21, 4:10 PM)29.89 "Hg (Aug 21, 4:10 PM)
Low72 °F (Aug 23, 12:10 AM)38% (Aug 21, 10:40 AM)29.42 "Hg (Aug 30, 3:10 PM)
Average82 °F82%29.72 "Hg
* Reported Aug 16 3:40 PM — Aug 31 2:40 PM, Chhindwara, Weather by CustomWeather, © 2014

Note: Actual official high and low records may vary slightly from our data, if they occured in-between our weather recording intervals... More about our weather records

Advertising

Chhindwara weather history for previous 24 hours

 ConditionsComfort  
Time TempWeatherWind HumidityBarometerVisibility
2:40 PM
Aug 31
86 °FBroken clouds.7 mph75%29.42 "Hg4 mi
1:40 PM86 °FBroken clouds.8 mph75%29.47 "Hg4 mi
12:40 PM88 °FBroken clouds.3 mph70%29.50 "Hg4 mi
11:40 AM84 °FBroken clouds.3 mph79%29.53 "Hg4 mi
10:40 AM84 °FBroken clouds.2 mph79%29.56 "Hg4 mi
10:10 AM84 °FBroken clouds.2 mph79%29.56 "Hg4 mi
9:40 AM82 °FBroken clouds.3 mph84%29.56 "Hg4 mi
9:10 AM81 °FBroken clouds.2 mph89%29.56 "Hg4 mi
8:40 AM79 °FBroken clouds.2 mph89%29.56 "Hg3 mi
8:10 AM79 °FBroken clouds.3 mph89%29.56 "Hg3 mi
7:40 AM77 °FMore clouds than sun.3 mph94%29.56 "Hg3 mi
6:40 AM77 °FPartly sunny.3 mph94%29.53 "Hg2 mi
5:10 AM77 °FPassing clouds.3 mph89%29.53 "Hg2 mi
4:40 AM77 °FPassing clouds.3 mph89%29.53 "Hg2 mi
4:10 AM77 °FPassing clouds.3 mph89%29.53 "Hg2 mi
3:40 AM77 °FPassing clouds.3 mph89%29.53 "Hg2 mi
3:10 AM77 °FPassing clouds.3 mph89%29.53 "Hg2 mi
1:40 AM77 °FPartly cloudy.5 mph89%29.56 "Hg2 mi
12:10 AM77 °FLight rain. Passing clouds.5 mph94%29.56 "HgN/A
11:10 PM
Aug 30
77 °FThunderstorms. Passing clouds.7 mph89%29.59 "Hg2 mi
10:40 PM77 °FThunderstorms. Passing clouds.6 mph89%29.56 "Hg2 mi
10:10 PM77 °FPartly cloudy.9 mph89%29.59 "Hg2 mi
9:40 PM82 °FHaze.3 mph84%29.56 "Hg3 mi
9:10 PM82 °FHaze.5 mph79%29.56 "Hg3 mi
8:40 PM82 °FPassing clouds.3 mph79%29.56 "Hg3 mi
7:40 PM84 °FHaze.2 mph74%29.53 "Hg3 mi
7:10 PM84 °FHaze.2 mph74%29.53 "Hg3 mi
6:40 PM86 °FScattered clouds.2 mph75%29.53 "Hg3 mi
6:10 PM88 °FScattered clouds.5 mph70%29.50 "Hg3 mi
5:10 PM90 °FScattered clouds.5 mph67%29.50 "Hg3 mi
4:40 PM91 °FScattered clouds.5 mph63%29.47 "Hg3 mi
4:10 PM91 °FScattered clouds.6 mph63%29.47 "Hg3 mi
Weather by CustomWeather, © 2014

See weather overviewHow to use our weather pages